Location: Bishop�s Knoyle
(51.0728°N, 2.1714°W)
Time: 05:29:17
(UTC+00:00)

CENTAUR R/B - Pass Details

Date: 25 January 2021
Orbit: 742 x 1446 km, 63.5° (Epoch: 02 March)

Event Time Altitude Azimuth Distance (km) Brightness Sun altitude
Rises 06:53:55 0° 221° (SW) 3,433 5.1 -9.6°
Reaches altitude 10° 06:56:12 10° 221° (SW) 2,577 4.5 -9.3°
Maximum altitude 07:02:15 89° 134° (SE) 1,026 2.7 -8.4°
Drops below altitude 10° 07:09:34 10° 45° (NE) 3,091 5.5 -7.3°
Sets 07:12:33 0° 45° (NE) 4,163 6.1 -6.8°
